Погода в Теджене

Погода в Теджене : погода сейчас, прогноз погоды и архив. Всё, что Вы хотите узнать о погоде в Теджене!

Хотите узнать прогноз погоды в Теджене? Тогда Вам сюда: Погода в Теджене

Поиск расширенной информации на нашем сайте:

Другие новости

Новости СМИ2

Главная страница сайта

Новости сайта

03.07.2017

Напоминаем, что на нашем специализированном сайте Метеоцентр.Азия вы можете получить высокодетализированные автоматические прогнозы погоды по пунктам России, СНГ и мира в авиационном формате (включающие направление и скорость ветра, видимость, явления погоды, количество и форму облачности, нижнюю и верхнюю границу облачности).

Рекомендуем: http://www.woomen.biz/ запорожский женский форум.

Погода в Теджене - сегодня

Время (UTC), дата Ветер
(°,м/с) 
Видим.   Явления Облачность Т
(°С)
Тd
(°С)
f(%) Тe
(°С)
Pmin
(гПа)
dP
(гПа)
Po
(мм)
O2
(г/м3)
Тmin Tmax R s Состояние
почвы
18 16.09.17 тихо ()   10 км    ясно 
+19.2 +4.8 39 +19  1017.1  -0.2  746  280    +30.5       
21 16.09.17 270 (З) 10 км    ясно 
+16 +2.7 41 +17  1017.2  -0.1  746  284           
00 17.09.17 270 (З) 10 км    ясно 
+13.6 +2.5 47 +14  1017.4  746  286           
03 17.09.17 тихо ()   10 км    ясно 
+14.7 +3.2 46 +15  1018.3  747  285           
06 17.09.17 340 (С) 10 км    ясно 
+26.8 +3.6 22 +27  1017.4  747  274  +12         
09 17.09.17 310 (СЗ) 10 км    ясно 
+30.4 -0.9 13 +30  1017.7  -0.5  747  271           
12 17.09.17 320 (СЗ) 10 км    ясно 
+30.9 +0.9 15 +31  1016.8  -0.9  747  270           
15 17.09.17 280 (З) 10 км    ясно 
+24.4 +5.9 30 +24  1016.2  -1  746  275    +31.2       
18 17.09.17 270 (З) 10 км    ясно 
+18.8 +3.2 35 +20  1016.8  0.2  746  281    +31.2       
21 17.09.17 290 (З) 10 км    ясно 
+17 +2.1 37 +18  1016.6  -0.3  746  283           
00 18.09.17 300 (СЗ) 10 км    ясно 
+15 +1.9 41 +16  1016.9  0.1  746  285           
03 18.09.17 290 (З) 10 км    ясно 
+14.7 +2.3 43 +15  1018.4  1.5  747  285           
06 18.09.17 300 (СЗ) 10 км    ясно 
+27.7 +4 22 +28  1018  0.5  748  273  +13.1         
09 18.09.17 310 (СЗ) 10 км    ясно 
+30.9 +3.6 18 +31  1016.9  -0.9  747  270           
12 18.09.17 350 (С) 10 км    ясно 
+31.1 +4.3 18 +31  1015.8  -1  746  269           
15 18.09.17 тихо ()   10 км    ясно 
+25.3   1016.4  0.1  757      +32       
18 18.09.17 270 (З) 10 км    ясно 
+20 +3.2 33 +20  1016.8  0.1  746  280    +32       
21 18.09.17 320 (СЗ) 10 км    ясно 
+19 +1.5 31 +20  1016.6  -0.3  746  281           
00 19.09.17 290 (З) 10 км    ясно 
+15 +1.5 40 +16  1016.9  746  285           
03 19.09.17 310 (СЗ) 10 км    ясно 
+16.2 +1.9 38 +17  1017.5  0.7  747  284           
06 19.09.17 280 (З) 10 км    ясно 
+27 +5 24 +27  1017  0.3  747  273  +13.7         
09 19.09.17 310 (СЗ) 10 км    ясно 
+32.8 +4.5 17 +33  1015.8  -0.8  746  268           
12 19.09.17 340 (С) 10 км    ясно 
+33.3 +1.1 13 +33  1014.6  -1.2  745  267           
15 19.09.17 тихо ()   10 км    ясно 
+25.3 +10.2 39 +27  1015.6  0.5  746  273    +33.6       
18 19.09.17 340 (С) 10 км    ясно 
+20.7 +9.9 50 +22  1015.4  -0.5  745  277    +33.6       
Время (UTC), дата Ветер
(°,м/с) 
Видим.   Явления Облачность Т
(°С)
Тd
(°С)
f(%) Тe
(°С)
Pmin
(гПа)
dP
(гПа)
Po
(мм)
O2
(г/м3)
Тmin Tmax R s Состояние
почвы

Для получения пояснительной информации подведите курсор к названию столбца.

ПОГОДА в Теджене - архив

Всё, что Вы хотите узнать о погоде в Теджене - удобно и подробно!

Выберите нужную дату (начиная с 1 января 2015* года) и нажмите кнопку "Найти".
Будут отображены архивные сводки погоды по пункту Теджен, начиная с указанной даты.


Отображать данные в формате CSV (для использования в таблицах Excel)


Внимание! Наш архив погоды предназначен исключительно для личного некоммерческого использования в познавательных целях. Если Вам необходимы официальные справки о состоянии погоды (для производственных, юридических, коммерческих и т.п. целей), обращайтесь в органы Росгидромета.

*Примечание: данная дата относится к архиву по метеостанциям СССР (Россия, СНГ, Балтия).
Архив по метеостанциям Зарубежной Европы и Азии (кроме Китая) хранится 10 дней, по другим регионам земного шара (Китай, Африка, Америка, Австралия, Океания) - 1 день.

Теджен - район местоположения метеостанции


Название, широта, долгота, высота метеостанции:
Теджен 37.4°ш. 60.5°д. 186 м над ур. моря [Туркменистан]

Дополнительная информация

В oтличие oт бoльшинства пoгoдных сайтoв мы публикуем пoдрoбную метеoинфoрмацию в детальнoм прoфессиoнальнoм фoрмате.

Характеристики температуры и влажнoсти вoздуха измеряются на высoте 2 м в тени вдали oт зданий и деревьев.
Скoрoсть ветра измеряется на высoте 10 м (на урoвне рoста челoвека скoрoсть ветра ниже в 1.5-2 раза). Если метеoстанция нахoдится в гoрoде или в лесу, тo скoрoсть ветра занижена на 2-4 м/с пo сравнению с oткрытым местoм. Скoрoсть ветра над акватoриями крупных рек и oзёр, а также на вершинах хoлмoв на 2-5 м/с выше, чем в oбычных услoвиях.
Атмoсфернoе давление в разных тoчках местнoсти мoжет значительнo oтличаться oт давления на метеoстанции, в зависимoсти oт услoвий рельефа (при пoдъёме на 10 м давление пoнижается примернo на 1 мм рт.ст.).